Time,TemperatureF,DewpointF,PressureIn,WindDirection,WindDirectionDegrees,WindSpeedMPH,WindSpeedGustMPH,Humidity,HourlyPrecipIn,Conditions,Clouds,dailyrainin,SoftwareType,DateUTC
2013-11-15 00:01:00,41.5,24.4,29.94,West,259,7.2,7.2,50,0.00,,---,0.00,VWS V14.01,2013-11-15 06:01:00,
2013-11-15 00:06:00,41.4,24.3,29.94,SSW,204,1.8,9.0,50,0.00,,---,0.00,VWS V14.01,2013-11-15 06:06:00,
2013-11-15 00:11:00,41.2,24.1,29.94,South,181,9.0,12.6,50,0.00,,---,0.00,VWS V14.01,2013-11-15 06:11:00,
2013-11-15 00:16:00,41.0,23.9,29.94,WSW,240,5.4,9.0,50,0.00,,---,0.00,VWS V14.01,2013-11-15 06:16:00,
2013-11-15 00:21:00,40.9,23.8,29.94,South,187,7.2,7.2,50,0.00,,---,0.00,VWS V14.01,2013-11-15 06:21:00,
2013-11-15 00:26:00,40.8,23.7,29.93,SW,218,7.2,7.2,50,0.00,,---,0.00,VWS V14.01,2013-11-15 06:26:00,
2013-11-15 00:31:00,40.6,24.0,29.93,SSW,204,10.8,10.8,51,0.00,,---,0.00,VWS V14.01,2013-11-15 06:31:00,
2013-11-15 00:36:00,40.5,23.9,29.93,West,259,3.6,12.6,51,0.00,,---,0.00,VWS V14.01,2013-11-15 06:36:00,
2013-11-15 00:41:00,40.3,23.7,29.93,SW,224,3.6,5.4,51,0.00,,---,0.00,VWS V14.01,2013-11-15 06:41:00,
2013-11-15 00:46:00,40.1,23.9,29.93,West,260,5.4,5.4,52,0.00,,---,0.00,VWS V14.01,2013-11-15 06:46:00,
2013-11-15 00:51:00,40.0,23.9,29.93,South,183,5.4,10.8,52,0.00,,---,0.00,VWS V14.01,2013-11-15 06:51:00,
2013-11-15 00:56:00,39.9,23.8,29.93,SSW,211,3.6,5.4,52,0.00,,---,0.00,VWS V14.01,2013-11-15 06:56:00,
2013-11-15 01:01:00,39.8,23.7,29.93,WSW,240,1.8,3.6,52,0.00,,---,0.00,VWS V14.01,2013-11-15 07:01:00,
2013-11-15 01:06:00,39.7,23.6,29.93,SSW,203,1.8,3.6,52,0.00,,---,0.00,VWS V14.01,2013-11-15 07:06:00,
2013-11-15 01:11:00,39.7,23.6,29.93,South,188,3.6,5.4,52,0.00,,---,0.00,VWS V14.01,2013-11-15 07:11:00,
2013-11-15 01:16:00,39.6,23.9,29.93,SW,229,1.8,7.2,53,0.00,,---,0.00,VWS V14.01,2013-11-15 07:16:00,
2013-11-15 01:21:00,39.6,23.9,29.93,SSW,211,5.4,5.4,53,0.00,,---,0.00,VWS V14.01,2013-11-15 07:21:00,
2013-11-15 01:26:00,39.6,23.9,29.93,SW,232,3.6,5.4,53,0.00,,---,0.00,VWS V14.01,2013-11-15 07:26:00,
2013-11-15 01:31:00,39.6,23.9,29.93,SW,221,1.8,7.2,53,0.00,,---,0.00,VWS V14.01,2013-11-15 07:31:00,
2013-11-15 01:36:00,39.6,23.9,29.94,South,177,5.4,9.0,53,0.00,,---,0.00,VWS V14.01,2013-11-15 07:36:00,
2013-11-15 01:41:00,39.7,24.0,29.93,SW,217,3.6,7.2,53,0.00,,---,0.00,VWS V14.01,2013-11-15 07:41:00,
2013-11-15 01:46:00,39.7,24.0,29.94,West,261,3.6,3.6,53,0.00,,---,0.00,VWS V14.01,2013-11-15 07:46:00,
2013-11-15 01:51:00,39.7,24.0,29.93,SW,215,7.2,7.2,53,0.00,,---,0.00,VWS V14.01,2013-11-15 07:51:00,
2013-11-15 01:56:00,39.6,23.9,29.93,West,273,3.6,5.4,53,0.00,,---,0.00,VWS V14.01,2013-11-15 07:56:00,
2013-11-15 02:01:00,39.6,23.9,29.94,SW,231,1.8,3.6,53,0.00,,---,0.00,VWS V14.01,2013-11-15 08:01:00,
2013-11-15 02:06:00,39.5,24.2,29.93,SW,219,1.8,3.6,54,0.00,,---,0.00,VWS V14.01,2013-11-15 08:06:00,
2013-11-15 02:11:00,39.4,24.1,29.93,SW,227,3.6,3.6,54,0.00,,---,0.00,VWS V14.01,2013-11-15 08:11:00,
2013-11-15 02:16:00,39.5,24.2,29.93,South,169,3.6,3.6,54,0.00,,---,0.00,VWS V14.01,2013-11-15 08:16:00,
2013-11-15 02:21:00,39.5,24.2,29.93,SSW,209,0.0,1.8,54,0.00,,---,0.00,VWS V14.01,2013-11-15 08:21:00,
2013-11-15 02:26:00,39.6,24.3,29.93,South,179,0.0,3.6,54,0.00,,---,0.00,VWS V14.01,2013-11-15 08:26:00,
2013-11-15 02:31:00,39.6,24.3,29.93,South,179,0.0,0.0,54,0.00,,---,0.00,VWS V14.01,2013-11-15 08:31:00,
2013-11-15 02:36:00,39.6,24.3,29.93,SSW,207,0.0,3.6,54,0.00,,---,0.00,VWS V14.01,2013-11-15 08:36:00,
2013-11-15 02:41:00,39.7,24.4,29.93,SSW,201,0.0,3.6,54,0.00,,---,0.00,VWS V14.01,2013-11-15 08:41:00,
2013-11-15 02:46:00,39.7,24.4,29.93,WSW,248,0.0,0.0,54,0.00,,---,0.00,VWS V14.01,2013-11-15 08:46:00,
2013-11-15 02:51:00,39.6,24.3,29.93,WSW,248,0.0,0.0,54,0.00,,---,0.00,VWS V14.01,2013-11-15 08:51:00,
2013-11-15 02:56:00,39.4,24.1,29.93,SSW,196,0.0,1.8,54,0.00,,---,0.00,VWS V14.01,2013-11-15 08:56:00,
2013-11-15 03:01:00,39.2,24.4,29.93,SSW,195,0.0,1.8,55,0.00,,---,0.00,VWS V14.01,2013-11-15 09:01:00,
2013-11-15 03:06:00,39.0,24.2,29.93,SSW,198,0.0,3.6,55,0.00,,---,0.00,VWS V14.01,2013-11-15 09:06:00,
2013-11-15 03:11:00,38.9,24.1,29.93,SSW,211,1.8,3.6,55,0.00,,---,0.00,VWS V14.01,2013-11-15 09:11:00,
2013-11-15 03:16:00,38.7,23.9,29.93,SW,225,1.8,1.8,55,0.00,,---,0.00,VWS V14.01,2013-11-15 09:16:00,
2013-11-15 03:21:00,38.6,24.2,29.93,SSW,204,3.6,5.4,56,0.00,,---,0.00,VWS V14.01,2013-11-15 09:21:00,
2013-11-15 03:26:00,38.4,24.0,29.93,SW,231,3.6,5.4,56,0.00,,---,0.00,VWS V14.01,2013-11-15 09:26:00,
2013-11-15 03:31:00,38.3,23.9,29.93,SW,231,3.6,3.6,56,0.00,,---,0.00,VWS V14.01,2013-11-15 09:31:00,
2013-11-15 03:36:00,38.1,23.7,29.93,WSW,246,0.0,1.8,56,0.00,,---,0.00,VWS V14.01,2013-11-15 09:36:00,
2013-11-15 03:41:00,37.9,23.1,29.93,SSW,208,5.4,9.0,55,0.00,,---,0.00,VWS V14.01,2013-11-15 09:41:00,
2013-11-15 03:46:00,37.9,23.1,29.93,WSW,238,5.4,5.4,55,0.00,,---,0.00,VWS V14.01,2013-11-15 09:46:00,
2013-11-15 03:51:00,37.9,23.1,29.93,WNW,283,3.6,7.2,55,0.00,,---,0.00,VWS V14.01,2013-11-15 09:51:00,
2013-11-15 03:56:00,37.8,23.4,29.93,SSW,194,3.6,7.2,56,0.00,,---,0.00,VWS V14.01,2013-11-15 09:56:00,
2013-11-15 04:01:00,37.7,23.4,29.93,SSW,197,1.8,1.8,56,0.00,,---,0.00,VWS V14.01,2013-11-15 10:01:00,
2013-11-15 04:06:00,37.5,23.2,29.93,West,263,1.8,1.8,56,0.00,,---,0.00,VWS V14.01,2013-11-15 10:06:00,
2013-11-15 04:11:00,37.3,23.4,29.93,West,259,1.8,3.6,57,0.00,,---,0.00,VWS V14.01,2013-11-15 10:11:00,
2013-11-15 04:16:00,37.1,23.2,29.93,WSW,248,1.8,3.6,57,0.00,,---,0.00,VWS V14.01,2013-11-15 10:16:00,
2013-11-15 04:21:00,36.9,23.4,29.93,SSW,201,5.4,5.4,58,0.00,,---,0.00,VWS V14.01,2013-11-15 10:21:00,
2013-11-15 04:26:00,36.7,23.2,29.93,WSW,252,1.8,1.8,58,0.00,,---,0.00,VWS V14.01,2013-11-15 10:26:00,
2013-11-15 04:31:00,36.6,23.5,29.93,SW,218,1.8,1.8,59,0.00,,---,0.00,VWS V14.01,2013-11-15 10:31:00,
2013-11-15 04:36:00,36.5,23.4,29.93,SW,214,3.6,3.6,59,0.00,,---,0.00,VWS V14.01,2013-11-15 10:36:00,
2013-11-15 04:41:00,36.3,23.2,29.93,SSW,205,0.0,1.8,59,0.00,,---,0.00,VWS V14.01,2013-11-15 10:41:00,
2013-11-15 04:46:00,36.1,23.4,29.93,SW,215,1.8,5.4,60,0.00,,---,0.00,VWS V14.01,2013-11-15 10:46:00,
2013-11-15 04:51:00,36.0,23.3,29.93,WSW,255,1.8,1.8,60,0.00,,---,0.00,VWS V14.01,2013-11-15 10:51:00,
2013-11-15 04:56:00,35.9,23.2,29.93,WSW,250,1.8,3.6,60,0.00,,---,0.00,VWS V14.01,2013-11-15 10:56:00,
2013-11-15 05:01:00,35.8,23.5,29.93,SSW,207,0.0,1.8,60,0.00,,---,0.00,VWS V14.01,2013-11-15 11:01:00,
2013-11-15 05:06:00,35.7,23.4,29.93,SSW,201,0.0,0.0,60,0.00,,---,0.00,VWS V14.01,2013-11-15 11:06:00,
2013-11-15 05:11:00,35.6,23.3,29.93,SSW,194,1.8,3.6,60,0.00,,---,0.00,VWS V14.01,2013-11-15 11:11:00,
2013-11-15 05:16:00,35.5,23.2,29.94,SSW,204,0.0,0.0,60,0.00,,---,0.00,VWS V14.01,2013-11-15 11:16:00,
2013-11-15 05:21:00,35.4,23.1,29.94,SSW,208,0.0,1.8,60,0.00,,---,0.00,VWS V14.01,2013-11-15 11:21:00,
2013-11-15 05:26:00,35.3,23.4,29.94,SW,219,0.0,0.0,61,0.00,,---,0.00,VWS V14.01,2013-11-15 11:26:00,
2013-11-15 05:31:00,35.3,23.4,29.93,SW,229,0.0,0.0,61,0.00,,---,0.00,VWS V14.01,2013-11-15 11:31:00,
2013-11-15 05:36:00,35.1,23.2,29.93,SW,233,1.8,1.8,61,0.00,,---,0.00,VWS V14.01,2013-11-15 11:36:00,
2013-11-15 05:41:00,35.1,23.2,29.93,SW,220,3.6,3.6,61,0.00,,---,0.00,VWS V14.01,2013-11-15 11:41:00,
2013-11-15 05:46:00,35.1,23.2,29.93,WSW,253,0.0,1.8,61,0.00,,---,0.00,VWS V14.01,2013-11-15 11:46:00,
2013-11-15 05:51:00,35.2,23.3,29.93,South,186,1.8,3.6,61,0.00,,---,0.00,VWS V14.01,2013-11-15 11:51:00,
2013-11-15 05:56:00,35.4,23.5,29.94,SW,230,3.6,5.4,61,0.00,,---,0.00,VWS V14.01,2013-11-15 11:56:00,
2013-11-15 06:01:00,35.7,23.4,29.94,SSW,203,3.6,3.6,60,0.00,,---,0.00,VWS V14.01,2013-11-15 12:01:00,
2013-11-15 06:06:00,35.9,23.6,29.94,SSW,204,0.0,3.6,60,0.00,,---,0.00,VWS V14.01,2013-11-15 12:06:00,
2013-11-15 06:11:00,36.3,23.6,29.93,SW,233,3.6,5.4,60,0.00,,---,0.00,VWS V14.01,2013-11-15 12:11:00,
2013-11-15 06:16:00,36.6,23.9,29.94,WSW,240,1.8,1.8,60,0.00,,---,0.00,VWS V14.01,2013-11-15 12:16:00,
2013-11-15 06:21:00,36.9,23.8,29.94,SSW,200,3.6,5.4,59,0.00,,---,0.00,VWS V14.01,2013-11-15 12:21:00,
2013-11-15 06:26:00,37.1,24.0,29.94,SSW,207,0.0,1.8,59,0.00,,---,0.00,VWS V14.01,2013-11-15 12:26:00,
2013-11-15 06:31:00,37.2,24.0,29.94,SSW,205,3.6,3.6,59,0.00,,---,0.00,VWS V14.01,2013-11-15 12:31:00,
2013-11-15 06:36:00,37.3,24.1,29.94,SSE,156,1.8,3.6,59,0.00,,---,0.00,VWS V14.01,2013-11-15 12:36:00,
2013-11-15 06:41:00,37.4,24.2,29.95,SE,136,1.8,5.4,59,0.00,,---,0.00,VWS V14.01,2013-11-15 12:41:00,
2013-11-15 06:46:00,37.5,24.3,29.95,WSW,255,3.6,9.0,59,0.00,,---,0.00,VWS V14.01,2013-11-15 12:46:00,
2013-11-15 06:51:00,37.6,24.0,29.95,SW,233,3.6,7.2,58,0.00,,---,0.00,VWS V14.01,2013-11-15 12:51:00,
2013-11-15 06:56:00,37.7,24.1,29.95,SSW,201,3.6,5.4,58,0.00,,---,0.00,VWS V14.01,2013-11-15 12:56:00,
2013-11-15 07:01:00,37.7,24.1,29.95,SSE,155,5.4,5.4,58,0.00,,---,0.00,VWS V14.01,2013-11-15 13:01:00,
2013-11-15 07:06:00,37.8,24.2,29.95,SSE,148,5.4,5.4,58,0.00,,---,0.00,VWS V14.01,2013-11-15 13:06:00,
2013-11-15 07:11:00,37.8,24.6,29.95,SW,224,3.6,3.6,59,0.00,,---,0.00,VWS V14.01,2013-11-15 13:11:00,
2013-11-15 07:16:00,37.7,24.5,29.95,SW,221,9.0,9.0,59,0.00,,---,0.00,VWS V14.01,2013-11-15 13:16:00,
2013-11-15 07:21:00,37.7,24.5,29.95,West,277,3.6,5.4,59,0.00,,---,0.00,VWS V14.01,2013-11-15 13:21:00,
2013-11-15 07:26:00,37.7,24.5,29.96,WSW,240,7.2,7.2,59,0.00,,---,0.00,VWS V14.01,2013-11-15 13:26:00,
2013-11-15 07:31:00,37.7,24.5,29.96,SW,217,3.6,5.4,59,0.00,,---,0.00,VWS V14.01,2013-11-15 13:31:00,
2013-11-15 07:36:00,37.7,24.5,29.96,WSW,244,1.8,3.6,59,0.00,,---,0.00,VWS V14.01,2013-11-15 13:36:00,
2013-11-15 07:41:00,37.8,24.6,29.96,West,264,3.6,5.4,59,0.00,,---,0.00,VWS V14.01,2013-11-15 13:41:00,
2013-11-15 07:46:00,37.8,25.0,29.96,South,183,3.6,3.6,60,0.00,,---,0.00,VWS V14.01,2013-11-15 13:46:00,
2013-11-15 07:51:00,37.8,25.0,29.96,SSW,207,1.8,3.6,60,0.00,,---,0.00,VWS V14.01,2013-11-15 13:51:00,
2013-11-15 07:56:00,38.0,25.2,29.96,SSW,201,0.0,0.0,60,0.00,,---,0.00,VWS V14.01,2013-11-15 13:56:00,
2013-11-15 08:01:00,38.3,25.5,29.95,SW,221,7.2,7.2,60,0.00,,---,0.00,VWS V14.01,2013-11-15 14:01:00,
2013-11-15 08:06:00,38.6,25.4,29.95,South,186,0.0,1.8,59,0.00,,---,0.00,VWS V14.01,2013-11-15 14:06:00,
2013-11-15 08:11:00,38.9,25.6,29.95,SW,215,0.0,0.0,59,0.00,,---,0.00,VWS V14.01,2013-11-15 14:11:00,
2013-11-15 08:16:00,39.2,25.9,29.95,South,188,1.8,1.8,59,0.00,,---,0.00,VWS V14.01,2013-11-15 14:16:00,
2013-11-15 08:21:00,39.5,25.8,29.95,SE,125,5.4,5.4,58,0.00,,---,0.00,VWS V14.01,2013-11-15 14:21:00,
2013-11-15 08:26:00,39.7,26.0,29.95,SSW,194,3.6,3.6,58,0.00,,---,0.00,VWS V14.01,2013-11-15 14:26:00,
2013-11-15 08:31:00,39.9,26.2,29.96,West,266,3.6,12.6,58,0.00,,---,0.00,VWS V14.01,2013-11-15 14:31:00,
2013-11-15 08:36:00,40.1,26.4,29.96,ESE,110,1.8,1.8,58,0.00,,---,0.00,VWS V14.01,2013-11-15 14:36:00,
2013-11-15 08:41:00,40.3,26.6,29.96,West,259,1.8,3.6,58,0.00,,---,0.00,VWS V14.01,2013-11-15 14:41:00,
2013-11-15 08:46:00,40.4,26.7,29.96,West,259,5.4,5.4,58,0.00,,---,0.00,VWS V14.01,2013-11-15 14:46:00,
2013-11-15 08:51:00,40.6,26.9,29.96,West,269,1.8,1.8,58,0.00,,---,0.00,VWS V14.01,2013-11-15 14:51:00,
2013-11-15 08:56:00,40.9,27.1,29.96,WSW,246,5.4,7.2,58,0.00,,---,0.00,VWS V14.01,2013-11-15 14:56:00,
2013-11-15 09:01:00,41.3,27.1,29.96,West,276,1.8,1.8,57,0.00,,---,0.00,VWS V14.01,2013-11-15 15:01:00,
2013-11-15 09:06:00,41.7,27.1,29.96,West,262,5.4,7.2,56,0.00,,---,0.00,VWS V14.01,2013-11-15 15:06:00,
2013-11-15 09:11:00,42.1,27.1,29.96,WSW,255,0.0,1.8,55,0.00,,---,0.00,VWS V14.01,2013-11-15 15:11:00,
2013-11-15 09:16:00,42.4,27.3,29.97,SSW,211,3.6,5.4,55,0.00,,---,0.00,VWS V14.01,2013-11-15 15:16:00,
2013-11-15 09:21:00,42.8,27.3,29.97,West,262,7.2,9.0,54,0.00,,---,0.00,VWS V14.01,2013-11-15 15:21:00,
2013-11-15 09:26:00,43.2,27.7,29.96,West,259,7.2,9.0,54,0.00,,---,0.00,VWS V14.01,2013-11-15 15:26:00,
2013-11-15 09:31:00,43.4,27.4,29.96,West,262,9.0,9.0,53,0.00,,---,0.00,VWS V14.01,2013-11-15 15:31:00,
2013-11-15 09:36:00,43.5,27.5,29.96,West,259,0.0,0.0,53,0.00,,---,0.00,VWS V14.01,2013-11-15 15:36:00,
2013-11-15 09:41:00,43.9,27.9,29.96,West,272,1.8,5.4,53,0.00,,---,0.00,VWS V14.01,2013-11-15 15:41:00,
2013-11-15 09:46:00,44.2,28.2,29.96,West,281,3.6,3.6,53,0.00,,---,0.00,VWS V14.01,2013-11-15 15:46:00,
2013-11-15 09:51:00,44.7,28.2,29.97,West,259,0.0,1.8,52,0.00,,---,0.00,VWS V14.01,2013-11-15 15:51:00,
2013-11-15 09:56:00,45.1,28.6,29.96,West,267,1.8,3.6,52,0.00,,---,0.00,VWS V14.01,2013-11-15 15:56:00,
2013-11-15 10:01:00,45.6,28.6,29.96,SW,214,3.6,9.0,51,0.00,,---,0.00,VWS V14.01,2013-11-15 16:01:00,
2013-11-15 10:06:00,46.0,28.5,29.96,SW,233,1.8,1.8,50,0.00,,---,0.00,VWS V14.01,2013-11-15 16:06:00,
2013-11-15 10:11:00,46.4,28.9,29.96,West,259,10.8,10.8,50,0.00,,---,0.00,VWS V14.01,2013-11-15 16:11:00,
2013-11-15 10:16:00,46.5,29.0,29.96,WNW,289,1.8,3.6,50,0.00,,---,0.00,VWS V14.01,2013-11-15 16:16:00,
2013-11-15 10:21:00,46.9,29.4,29.96,WSW,255,5.4,5.4,50,0.00,,---,0.00,VWS V14.01,2013-11-15 16:21:00,
2013-11-15 10:26:00,47.4,29.4,29.96,West,265,5.4,5.4,49,0.00,,---,0.00,VWS V14.01,2013-11-15 16:26:00,
2013-11-15 10:31:00,47.6,29.1,29.96,SW,233,5.4,5.4,48,0.00,,---,0.00,VWS V14.01,2013-11-15 16:31:00,
2013-11-15 10:36:00,47.7,29.2,29.96,West,271,3.6,5.4,48,0.00,,---,0.00,VWS V14.01,2013-11-15 16:36:00,
2013-11-15 10:41:00,47.8,29.7,29.96,WSW,248,5.4,5.4,49,0.00,,---,0.00,VWS V14.01,2013-11-15 16:41:00,
2013-11-15 10:46:00,48.0,29.5,29.96,WSW,239,3.6,3.6,48,0.00,,---,0.00,VWS V14.01,2013-11-15 16:46:00,
2013-11-15 10:51:00,48.3,29.7,29.96,West,269,1.8,3.6,48,0.00,,---,0.00,VWS V14.01,2013-11-15 16:51:00,
2013-11-15 10:56:00,48.6,29.5,29.95,WNW,297,1.8,5.4,47,0.00,,---,0.00,VWS V14.01,2013-11-15 16:56:00,
2013-11-15 11:00:00,49.0,30.4,29.95,SW,225,5.4,9.0,48,0.00,,---,0.00,VWS V14.01,2013-11-15 17:00:00,
2013-11-15 11:05:00,49.3,30.2,29.95,West,269,5.4,7.2,47,0.00,,---,0.00,VWS V14.01,2013-11-15 17:05:00,
2013-11-15 11:10:00,49.6,30.4,29.95,WSW,242,7.2,7.2,47,0.00,,---,0.00,VWS V14.01,2013-11-15 17:10:00,
2013-11-15 11:15:00,49.9,30.7,29.95,WSW,253,3.6,3.6,47,0.00,,---,0.00,VWS V14.01,2013-11-15 17:15:00,
2013-11-15 11:20:00,50.4,30.2,29.95,WSW,253,7.2,10.8,46,0.00,,---,0.00,VWS V14.01,2013-11-15 17:20:00,
2013-11-15 11:25:00,50.6,30.9,29.94,West,266,5.4,5.4,46,0.00,,---,0.00,VWS V14.01,2013-11-15 17:25:00,
2013-11-15 11:30:00,50.6,30.4,29.94,SSW,193,3.6,5.4,46,0.00,,---,0.00,VWS V14.01,2013-11-15 17:30:00,
2013-11-15 11:35:00,50.9,30.6,29.94,SSW,200,3.6,5.4,46,0.00,,---,0.00,VWS V14.01,2013-11-15 17:35:00,
2013-11-15 11:40:00,51.4,31.1,29.94,West,264,1.8,1.8,46,0.00,,---,0.00,VWS V14.01,2013-11-15 17:40:00,
2013-11-15 11:45:00,51.9,31.0,29.94,West,259,1.8,3.6,45,0.00,,---,0.00,VWS V14.01,2013-11-15 17:45:00,
2013-11-15 11:50:00,52.1,30.7,29.93,WSW,242,5.4,5.4,44,0.00,,---,0.00,VWS V14.01,2013-11-15 17:50:00,
2013-11-15 11:55:00,52.2,31.3,29.93,SSW,200,7.2,10.8,45,0.00,,---,0.00,VWS V14.01,2013-11-15 17:55:00,
2013-11-15 12:00:00,52.3,30.9,29.93,West,277,5.4,5.4,44,0.00,,---,0.00,VWS V14.01,2013-11-15 18:00:00,
2013-11-15 12:05:00,52.5,31.6,29.93,WSW,243,5.4,5.4,45,0.00,,---,0.00,VWS V14.01,2013-11-15 18:05:00,
2013-11-15 12:10:00,53.0,31.0,29.93,South,172,5.4,5.4,43,0.00,,---,0.00,VWS V14.01,2013-11-15 18:10:00,
2013-11-15 12:15:00,53.0,31.0,29.93,WSW,243,5.4,9.0,43,0.00,,---,0.00,VWS V14.01,2013-11-15 18:15:00,
2013-11-15 12:20:00,53.0,31.5,29.93,SSW,198,3.6,5.4,44,0.00,,---,0.00,VWS V14.01,2013-11-15 18:20:00,
2013-11-15 12:25:00,53.3,31.3,29.92,SW,219,5.4,5.4,43,0.00,,---,0.00,VWS V14.01,2013-11-15 18:25:00,
2013-11-15 12:30:00,53.9,31.8,29.92,West,263,5.4,7.2,43,0.00,,---,0.00,VWS V14.01,2013-11-15 18:30:00,
2013-11-15 12:35:00,54.1,31.5,29.92,SW,233,3.6,5.4,42,0.00,,---,0.00,VWS V14.01,2013-11-15 18:35:00,
2013-11-15 12:40:00,54.2,32.1,29.92,SSE,167,1.8,1.8,43,0.00,,---,0.00,VWS V14.01,2013-11-15 18:40:00,
2013-11-15 12:45:00,54.6,32.4,29.91,South,189,7.2,7.2,43,0.00,,---,0.00,VWS V14.01,2013-11-15 18:45:00,
2013-11-15 12:50:00,55.1,32.3,29.91,South,174,3.6,3.6,42,0.00,,---,0.00,VWS V14.01,2013-11-15 18:50:00,
2013-11-15 12:55:00,55.3,32.5,29.91,SE,136,3.6,5.4,42,0.00,,---,0.00,VWS V14.01,2013-11-15 18:55:00,
2013-11-15 13:00:00,55.6,31.7,29.91,WNW,283,5.4,10.8,40,0.00,,---,0.00,VWS V14.01,2013-11-15 19:00:00,
2013-11-15 13:05:00,55.7,31.8,29.91,South,189,9.0,9.0,40,0.00,,---,0.00,VWS V14.01,2013-11-15 19:05:00,
2013-11-15 13:10:00,55.6,31.7,29.90,SSW,205,7.2,10.8,40,0.00,,---,0.00,VWS V14.01,2013-11-15 19:10:00,
2013-11-15 13:15:00,55.7,31.8,29.90,South,187,9.0,16.2,40,0.00,,---,0.00,VWS V14.01,2013-11-15 19:15:00,
2013-11-15 13:20:00,55.7,31.8,29.90,WSW,238,3.6,14.4,40,0.00,,---,0.00,VWS V14.01,2013-11-15 19:20:00,
2013-11-15 13:25:00,55.8,32.4,29.90,SSW,195,10.8,10.8,41,0.00,,---,0.00,VWS V14.01,2013-11-15 19:25:00,
2013-11-15 13:30:00,55.7,31.8,29.90,SSE,165,7.2,14.4,40,0.00,,---,0.00,VWS V14.01,2013-11-15 19:30:00,
2013-11-15 13:35:00,55.7,32.3,29.90,SW,222,7.2,14.4,41,0.00,,---,0.00,VWS V14.01,2013-11-15 19:35:00,
2013-11-15 13:40:00,55.7,32.3,29.90,SW,222,9.0,12.6,41,0.00,,---,0.00,VWS V14.01,2013-11-15 19:40:00,
2013-11-15 13:45:00,55.6,32.2,29.90,WNW,287,3.6,12.6,41,0.00,,---,0.00,VWS V14.01,2013-11-15 19:45:00,
2013-11-15 13:50:00,55.5,32.2,29.89,South,174,10.8,14.4,41,0.00,,---,0.00,VWS V14.01,2013-11-15 19:50:00,
2013-11-15 13:55:00,55.5,32.2,29.89,WSW,256,7.2,23.4,41,0.00,,---,0.00,VWS V14.01,2013-11-15 19:55:00,
2013-11-15 14:00:00,55.3,32.5,29.89,SSE,153,10.8,16.2,42,0.00,,---,0.00,VWS V14.01,2013-11-15 20:00:00,
2013-11-15 14:05:00,55.1,32.3,29.89,SW,235,9.0,14.4,42,0.00,,---,0.00,VWS V14.01,2013-11-15 20:05:00,
2013-11-15 14:10:00,55.2,32.4,29.89,SW,228,5.4,14.4,42,0.00,,---,0.00,VWS V14.01,2013-11-15 20:10:00,
2013-11-15 14:15:00,55.3,32.5,29.89,SW,217,7.2,10.8,42,0.00,,---,0.00,VWS V14.01,2013-11-15 20:15:00,
2013-11-15 14:20:00,55.1,32.9,29.89,SW,223,7.2,12.6,43,0.00,,---,0.00,VWS V14.01,2013-11-15 20:20:00,
2013-11-15 14:25:00,54.7,32.5,29.89,SSW,198,5.4,12.6,43,0.00,,---,0.00,VWS V14.01,2013-11-15 20:25:00,
2013-11-15 14:30:00,54.6,32.4,29.90,WNW,283,7.2,18.0,43,0.00,,---,0.00,VWS V14.01,2013-11-15 20:30:00,
2013-11-15 14:35:00,54.4,32.8,29.90,WSW,243,5.4,14.4,44,0.00,,---,0.00,VWS V14.01,2013-11-15 20:35:00,
2013-11-15 14:40:00,54.3,33.2,29.90,WSW,252,7.2,12.6,45,0.00,,---,0.00,VWS V14.01,2013-11-15 20:40:00,
2013-11-15 14:45:00,54.3,33.2,29.90,South,178,5.4,12.6,45,0.00,,---,0.00,VWS V14.01,2013-11-15 20:45:00,
2013-11-15 14:50:00,54.1,33.0,29.90,SSW,201,9.0,12.6,45,0.00,,---,0.00,VWS V14.01,2013-11-15 20:50:00,
2013-11-15 14:55:00,54.2,33.1,29.89,SSE,158,7.2,16.2,45,0.00,,---,0.00,VWS V14.01,2013-11-15 20:55:00,
2013-11-15 15:00:00,53.9,32.9,29.90,WSW,256,3.6,19.8,45,0.00,,---,0.00,VWS V14.01,2013-11-15 21:00:00,
2013-11-15 15:05:00,53.9,32.9,29.90,SSW,208,10.8,12.6,45,0.00,,---,0.00,VWS V14.01,2013-11-15 21:05:00,
2013-11-15 15:10:00,53.7,33.2,29.90,West,280,7.2,12.6,46,0.00,,---,0.00,VWS V14.01,2013-11-15 21:10:00,
2013-11-15 15:15:00,53.6,33.1,29.90,SW,217,5.4,14.4,46,0.00,,---,0.00,VWS V14.01,2013-11-15 21:15:00,
2013-11-15 15:20:00,53.4,33.4,29.90,WSW,239,3.6,14.4,46,0.00,,---,0.00,VWS V14.01,2013-11-15 21:20:00,
2013-11-15 15:25:00,53.4,32.9,29.90,SSW,197,9.0,14.4,46,0.00,,---,0.00,VWS V14.01,2013-11-15 21:25:00,
2013-11-15 15:30:00,53.2,32.7,29.90,SSW,203,3.6,16.2,46,0.00,,---,0.00,VWS V14.01,2013-11-15 21:30:00,
2013-11-15 15:35:00,52.9,32.5,29.90,South,170,12.6,18.0,46,0.00,,---,0.00,VWS V14.01,2013-11-15 21:35:00,
2013-11-15 15:40:00,52.7,32.3,29.90,SW,217,9.0,14.4,46,0.00,,---,0.00,VWS V14.01,2013-11-15 21:40:00,
2013-11-15 15:45:00,52.1,32.7,29.90,WSW,240,0.0,14.4,47,0.00,,---,0.00,VWS V14.01,2013-11-15 21:45:00,
2013-11-15 15:50:00,51.4,32.6,29.90,SW,236,3.6,10.8,48,0.00,,---,0.00,VWS V14.01,2013-11-15 21:50:00,
2013-11-15 15:55:00,50.8,32.5,29.91,WSW,246,1.8,9.0,49,0.00,,---,0.00,VWS V14.01,2013-11-15 21:55:00,
2013-11-15 16:00:00,50.4,33.0,29.91,SW,215,1.8,10.8,51,0.00,,---,0.00,VWS V14.01,2013-11-15 22:00:00,
2013-11-15 16:05:00,50.2,33.3,29.91,WSW,250,9.0,9.0,52,0.00,,---,0.00,VWS V14.01,2013-11-15 22:05:00,
2013-11-15 16:10:00,50.1,33.2,29.91,SSW,204,5.4,12.6,52,0.00,,---,0.00,VWS V14.01,2013-11-15 22:10:00,
2013-11-15 16:15:00,50.0,33.1,29.91,SSW,195,7.2,9.0,52,0.00,,---,0.00,VWS V14.01,2013-11-15 22:15:00,
2013-11-15 16:20:00,49.9,33.0,29.91,West,260,1.8,12.6,52,0.00,,---,0.00,VWS V14.01,2013-11-15 22:20:00,
2013-11-15 16:25:00,49.8,33.4,29.91,SSW,204,5.4,10.8,53,0.00,,---,0.00,VWS V14.01,2013-11-15 22:25:00,
2013-11-15 16:30:00,49.6,33.2,29.92,South,188,1.8,10.8,53,0.00,,---,0.00,VWS V14.01,2013-11-15 22:30:00,
2013-11-15 16:35:00,49.5,33.5,29.92,SSE,165,0.0,10.8,54,0.00,,---,0.00,VWS V14.01,2013-11-15 22:35:00,
2013-11-15 16:40:00,49.3,33.8,29.91,SSW,200,3.6,7.2,55,0.00,,---,0.00,VWS V14.01,2013-11-15 22:40:00,
2013-11-15 16:45:00,49.1,33.6,29.91,SW,217,1.8,12.6,55,0.00,,---,0.00,VWS V14.01,2013-11-15 22:45:00,
2013-11-15 16:50:00,49.0,33.9,29.91,East,97,1.8,5.4,56,0.00,,---,0.00,VWS V14.01,2013-11-15 22:50:00,
2013-11-15 16:55:00,48.7,34.0,29.91,West,262,5.4,9.0,57,0.00,,---,0.00,VWS V14.01,2013-11-15 22:55:00,
2013-11-15 17:00:00,48.5,33.9,29.91,South,190,3.6,7.2,57,0.00,,---,0.00,VWS V14.01,2013-11-15 23:00:00,
2013-11-15 17:05:00,48.2,34.0,29.91,SE,129,0.0,9.0,58,0.00,,---,0.00,VWS V14.01,2013-11-15 23:05:00,
2013-11-15 17:10:00,47.9,33.7,29.90,SSE,162,1.8,9.0,58,0.00,,---,0.00,VWS V14.01,2013-11-15 23:10:00,
2013-11-15 17:15:00,47.5,33.7,29.90,SSW,208,0.0,3.6,59,0.00,,---,0.00,VWS V14.01,2013-11-15 23:15:00,
2013-11-15 17:20:00,47.0,33.7,29.90,SSW,208,1.8,3.6,60,0.00,,---,0.00,VWS V14.01,2013-11-15 23:20:00,
2013-11-15 17:25:00,46.5,33.6,29.91,South,177,0.0,1.8,60,0.00,,---,0.00,VWS V14.01,2013-11-15 23:25:00,
2013-11-15 17:30:00,46.1,33.6,29.91,ENE,74,0.0,3.6,61,0.00,,---,0.00,VWS V14.01,2013-11-15 23:30:00,
2013-11-15 17:35:00,45.6,33.5,29.91,SW,229,3.6,3.6,62,0.00,,---,0.00,VWS V14.01,2013-11-15 23:35:00,
2013-11-15 17:40:00,45.3,33.6,29.91,SSW,211,0.0,3.6,63,0.00,,---,0.00,VWS V14.01,2013-11-15 23:40:00,
2013-11-15 17:45:00,45.0,33.6,29.91,SSE,167,0.0,5.4,64,0.00,,---,0.00,VWS V14.01,2013-11-15 23:45:00,
2013-11-15 17:50:00,44.7,33.7,29.91,SSW,207,1.8,3.6,65,0.00,,---,0.00,VWS V14.01,2013-11-15 23:50:00,
2013-11-15 17:55:00,44.5,33.5,29.91,SW,217,0.0,3.6,65,0.00,,---,0.00,VWS V14.01,2013-11-15 23:55:00,
2013-11-15 18:00:00,44.2,33.6,29.91,WSW,253,0.0,0.0,66,0.00,,---,0.00,VWS V14.01,2013-11-16 00:00:00,
2013-11-15 18:05:00,43.9,33.3,29.91,WSW,253,0.0,0.0,66,0.00,,---,0.00,VWS V14.01,2013-11-16 00:05:00,
2013-11-15 18:10:00,43.6,33.7,29.91,East,97,0.0,0.0,68,0.00,,---,0.00,VWS V14.01,2013-11-16 00:10:00,
2013-11-15 18:15:00,43.3,33.8,29.92,SW,231,0.0,0.0,69,0.00,,---,0.00,VWS V14.01,2013-11-16 00:15:00,
2013-11-15 18:20:00,43.1,33.6,29.92,East,95,0.0,1.8,69,0.00,,---,0.00,VWS V14.01,2013-11-16 00:20:00,
2013-11-15 18:25:00,42.9,33.7,29.91,SE,136,0.0,0.0,70,0.00,,---,0.00,VWS V14.01,2013-11-16 00:25:00,
2013-11-15 18:30:00,42.7,33.8,29.92,SE,127,0.0,0.0,71,0.00,,---,0.00,VWS V14.01,2013-11-16 00:30:00,
2013-11-15 18:35:00,42.3,33.5,29.91,ESE,110,0.0,0.0,71,0.00,,---,0.00,VWS V14.01,2013-11-16 00:35:00,
2013-11-15 18:40:00,42.1,33.6,29.92,East,101,0.0,0.0,72,0.00,,---,0.00,VWS V14.01,2013-11-16 00:40:00,
2013-11-15 18:45:00,41.9,33.7,29.91,ESE,104,0.0,0.0,73,0.00,,---,0.00,VWS V14.01,2013-11-16 00:45:00,
2013-11-15 18:50:00,41.8,33.6,29.92,ESE,117,0.0,0.0,73,0.00,,---,0.00,VWS V14.01,2013-11-16 00:50:00,
2013-11-15 18:55:00,41.5,33.3,29.91,ESE,117,0.0,0.0,73,0.00,,---,0.00,VWS V14.01,2013-11-16 00:55:00,
2013-11-15 19:00:00,41.1,33.3,29.91,ESE,117,0.0,0.0,73,0.00,,---,0.00,VWS V14.01,2013-11-16 01:00:00,
2013-11-15 19:05:00,40.5,32.7,29.91,ESE,117,0.0,0.0,73,0.00,,---,0.00,VWS V14.01,2013-11-16 01:05:00,
2013-11-15 19:10:00,39.9,32.1,29.91,ESE,117,0.0,0.0,73,0.00,,---,0.00,VWS V14.01,2013-11-16 01:10:00,
2013-11-15 19:15:00,39.3,31.9,29.90,ESE,117,0.0,0.0,74,0.00,,---,0.00,VWS V14.01,2013-11-16 01:15:00,
2013-11-15 19:20:00,38.7,31.9,29.90,ESE,117,0.0,0.0,76,0.00,,---,0.00,VWS V14.01,2013-11-16 01:20:00,
2013-11-15 19:25:00,38.8,32.6,29.90,ESE,117,0.0,0.0,78,0.00,,---,0.00,VWS V14.01,2013-11-16 01:25:00,
2013-11-15 19:30:00,38.9,32.7,29.90,ESE,120,0.0,0.0,78,0.00,,---,0.00,VWS V14.01,2013-11-16 01:30:00,
2013-11-15 19:35:00,39.2,33.3,29.90,ESE,117,1.8,3.6,79,0.00,,---,0.00,VWS V14.01,2013-11-16 01:35:00,
2013-11-15 19:40:00,39.7,33.8,29.91,ESE,103,0.0,7.2,79,0.00,,---,0.00,VWS V14.01,2013-11-16 01:40:00,
2013-11-15 19:45:00,39.9,33.7,29.91,ESE,116,1.8,3.6,78,0.00,,---,0.00,VWS V14.01,2013-11-16 01:45:00,
2013-11-15 19:50:00,40.2,33.9,29.91,ESE,115,5.4,5.4,78,0.00,,---,0.00,VWS V14.01,2013-11-16 01:50:00,
2013-11-15 19:55:00,40.3,34.0,29.91,ESE,113,1.8,3.6,78,0.00,,---,0.00,VWS V14.01,2013-11-16 01:55:00,
2013-11-15 20:00:00,40.3,34.0,29.90,ESE,117,0.0,0.0,78,0.00,,---,0.00,VWS V14.01,2013-11-16 02:00:00,
2013-11-15 20:05:00,40.2,33.6,29.90,ESE,120,0.0,0.0,77,0.00,,---,0.00,VWS V14.01,2013-11-16 02:05:00,
2013-11-15 20:10:00,40.1,33.5,29.90,ESE,110,0.0,3.6,77,0.00,,---,0.00,VWS V14.01,2013-11-16 02:10:00,
2013-11-15 20:15:00,39.8,33.2,29.89,ESE,114,0.0,1.8,77,0.00,,---,0.00,VWS V14.01,2013-11-16 02:15:00,
2013-11-15 20:20:00,39.6,33.4,29.89,ESE,120,0.0,1.8,78,0.00,,---,0.00,VWS V14.01,2013-11-16 02:20:00,
2013-11-15 20:25:00,39.4,33.2,29.89,ESE,114,0.0,3.6,78,0.00,,---,0.00,VWS V14.01,2013-11-16 02:25:00,
2013-11-15 20:30:00,39.4,33.5,29.89,ESE,113,0.0,9.0,79,0.00,,---,0.00,VWS V14.01,2013-11-16 02:30:00,
2013-11-15 20:35:00,39.3,33.4,29.89,SE,124,0.0,3.6,79,0.00,,---,0.00,VWS V14.01,2013-11-16 02:35:00,
2013-11-15 20:40:00,39.1,33.2,29.89,ESE,110,0.0,1.8,79,0.00,,---,0.00,VWS V14.01,2013-11-16 02:40:00,
2013-11-15 20:45:00,39.0,33.1,29.89,SE,134,0.0,3.6,79,0.00,,---,0.00,VWS V14.01,2013-11-16 02:45:00,
2013-11-15 20:50:00,38.9,33.0,29.89,ESE,115,1.8,1.8,79,0.00,,---,0.00,VWS V14.01,2013-11-16 02:50:00,
2013-11-15 20:55:00,38.8,32.9,29.89,SE,132,3.6,3.6,79,0.00,,---,0.00,VWS V14.01,2013-11-16 02:55:00,
2013-11-15 21:00:00,39.0,33.4,29.88,SE,130,3.6,9.0,80,0.00,,---,0.00,VWS V14.01,2013-11-16 03:00:00,
2013-11-15 21:05:00,39.3,33.4,29.88,SE,134,1.8,5.4,79,0.00,,---,0.00,VWS V14.01,2013-11-16 03:05:00,
2013-11-15 21:10:00,39.4,33.5,29.87,SE,141,0.0,1.8,79,0.00,,---,0.00,VWS V14.01,2013-11-16 03:10:00,
2013-11-15 21:15:00,39.8,33.8,29.88,SE,130,1.8,9.0,79,0.00,,---,0.00,VWS V14.01,2013-11-16 03:15:00,
2013-11-15 21:20:00,39.9,33.7,29.88,East,95,0.0,5.4,78,0.00,,---,0.00,VWS V14.01,2013-11-16 03:20:00,
2013-11-15 21:25:00,39.8,33.5,29.88,East,97,0.0,3.6,78,0.00,,---,0.00,VWS V14.01,2013-11-16 03:25:00,
2013-11-15 21:30:00,40.2,33.9,29.88,SSE,153,1.8,5.4,78,0.00,,---,0.00,VWS V14.01,2013-11-16 03:30:00,
2013-11-15 21:35:00,40.8,33.9,29.88,ESE,120,3.6,9.0,76,0.00,,---,0.00,VWS V14.01,2013-11-16 03:35:00,
2013-11-15 21:40:00,41.1,33.9,29.88,SW,225,1.8,10.8,75,0.00,,---,0.00,VWS V14.01,2013-11-16 03:40:00,
2013-11-15 21:45:00,41.4,33.9,29.88,SSW,209,0.0,5.4,74,0.00,,---,0.00,VWS V14.01,2013-11-16 03:45:00,
2013-11-15 21:50:00,41.5,33.7,29.88,East,91,0.0,12.6,73,0.00,,---,0.00,VWS V14.01,2013-11-16 03:50:00,
2013-11-15 21:55:00,41.5,33.7,29.88,SW,218,0.0,7.2,73,0.00,,---,0.00,VWS V14.01,2013-11-16 03:55:00,
2013-11-15 22:00:00,41.5,33.7,29.88,SSW,208,3.6,12.6,73,0.00,,---,0.00,VWS V14.01,2013-11-16 04:00:00,
2013-11-15 22:05:00,41.5,33.7,29.88,SSW,211,5.4,5.4,73,0.00,,---,0.00,VWS V14.01,2013-11-16 04:05:00,
2013-11-15 22:10:00,41.5,33.7,29.88,SW,215,3.6,7.2,73,0.00,,---,0.00,VWS V14.01,2013-11-16 04:10:00,
2013-11-15 22:15:00,41.5,33.7,29.88,SW,232,3.6,10.8,73,0.00,,---,0.00,VWS V14.01,2013-11-16 04:15:00,
2013-11-15 22:20:00,41.5,33.7,29.88,SW,222,1.8,9.0,73,0.00,,---,0.00,VWS V14.01,2013-11-16 04:20:00,
2013-11-15 22:25:00,41.4,33.6,29.88,SSW,198,1.8,7.2,73,0.00,,---,0.00,VWS V14.01,2013-11-16 04:25:00,
2013-11-15 22:30:00,41.3,33.5,29.88,WSW,243,1.8,12.6,73,0.00,,---,0.00,VWS V14.01,2013-11-16 04:30:00,
2013-11-15 22:35:00,41.2,33.4,29.88,SW,226,3.6,10.8,73,0.00,,---,0.00,VWS V14.01,2013-11-16 04:35:00,
2013-11-15 22:40:00,41.3,33.5,29.88,SSW,198,5.4,9.0,73,0.00,,---,0.00,VWS V14.01,2013-11-16 04:40:00,
2013-11-15 22:45:00,41.3,33.2,29.88,SSW,200,3.6,14.4,73,0.00,,---,0.00,VWS V14.01,2013-11-16 04:45:00,
2013-11-15 22:50:00,41.4,33.2,29.88,South,183,1.8,12.6,73,0.00,,---,0.00,VWS V14.01,2013-11-16 04:50:00,
2013-11-15 22:55:00,41.4,33.2,29.88,South,184,0.0,10.8,73,0.00,,---,0.00,VWS V14.01,2013-11-16 04:55:00,
2013-11-15 23:00:00,41.5,33.3,29.88,SW,236,10.8,10.8,73,0.00,,---,0.00,VWS V14.01,2013-11-16 05:00:00,
2013-11-15 23:01:00,41.6,33.4,29.87,SW,220,3.6,3.6,73,0.00,,---,0.00,VWS V14.01,2013-11-16 05:01:00,
2013-11-15 23:06:00,41.7,33.5,29.87,SW,214,9.0,12.6,73,0.00,,---,0.00,VWS V14.01,2013-11-16 05:06:00,
2013-11-15 23:11:00,41.7,33.5,29.87,SSW,207,5.4,7.2,73,0.00,,---,0.00,VWS V14.01,2013-11-16 05:11:00,
2013-11-15 23:16:00,41.6,33.4,29.88,SSW,207,5.4,10.8,73,0.00,,---,0.00,VWS V14.01,2013-11-16 05:16:00,
2013-11-15 23:21:00,41.6,33.4,29.87,SW,219,1.8,14.4,73,0.00,,---,0.00,VWS V14.01,2013-11-16 05:21:00,
2013-11-15 23:26:00,41.4,33.2,29.87,SW,216,5.4,9.0,73,0.00,,---,0.00,VWS V14.01,2013-11-16 05:26:00,
2013-11-15 23:31:00,41.4,33.6,29.87,SSW,207,7.2,10.8,73,0.00,,---,0.00,VWS V14.01,2013-11-16 05:31:00,
2013-11-15 23:36:00,41.2,33.4,29.87,SE,146,0.0,3.6,73,0.00,,---,0.00,VWS V14.01,2013-11-16 05:36:00,
2013-11-15 23:41:00,41.2,33.4,29.88,SSW,201,3.6,9.0,73,0.00,,---,0.00,VWS V14.01,2013-11-16 05:41:00,
2013-11-15 23:46:00,41.2,33.7,29.87,East,96,1.8,5.4,74,0.00,,---,0.00,VWS V14.01,2013-11-16 05:46:00,
2013-11-15 23:51:00,41.1,33.6,29.87,ESE,113,3.6,5.4,74,0.00,,---,0.00,VWS V14.01,2013-11-16 05:51:00,
2013-11-15 23:56:00,41.0,33.5,29.87,SW,222,3.6,5.4,74,0.00,,---,0.00,VWS V14.01,2013-11-16 05:56:00,